Tracking 27380 objects as of 5-Jun-2023
HD Live streaming from Space Station
objects crossing your sky now

DELTA 1 DEB

Track DELTA 1 DEB now!
10-day predictions


NORAD ID: 7026
Int'l Code: 1973-086S
Perigee: 1,316.2 km
Apogee: 1,521.7 km
Inclination: 102.1 °
Period: 114.0 minutes
Semi major axis: 7789 km
RCS: 0.0707 m2 (small)
Launch date: November 6, 1973
Source: United States (US)
Launch site: AIR FORCE WESTERN TEST RANGE (AFWTR)

Note: This is SATELLITE DEBRIS
Your satellite tracking list
Your tracking list is empty




NASA's NSSDC Master Catalog

Two Line Element Set (TLE):
1  7026U 73086S   23156.13891588  .00000473  00000-0  27953-2 0  9991
2  7026 102.0955 215.4861 0131902 132.0847 287.8873 12.62710025274975
Source of the keplerian elements: AFSPC